SCP
0 0 0 0 0 0 0 0 0 0 0 0 0 0 0 0 0 0 0 0 0 0 0 0 0 0 0 0 0 0 0 0 0 0 0 0 0 0 0 0 0 0 0 0
0 0 0 0 0 0 0 0 0 0 0 0 0 0 0 0 0 0 0 0 0 -0 -0 -0 0 0 0 0 0 0 0 0 0 0 0 0 0 0 0 0 0 0 0 0
0 0 0 0 0 0 0 0 0 0 0 0 0 0 0 0 0 0 0 -0 -0 -0 -0 -0 -0 -0 0 0 0 0 0 0 0 0 0 0 0 0 0 0 0 0 0 0
0 0 0 0 0 0 0 0 0 0 0 0 0 0 0 0 0 0 -0 -0 -0 -0 -0 -0 -0 -0 0 0 0 0 0 0 0 0 0 0 0 0 0 0 0 0 0 0
0 0 0 0 0 0 0 0 0 0 0 0 0 0 0 0 0 0 0 -0 -0 -0 -0 -0 -0 0 0 0 0 0 0 0 0 0 0 0 0 0 0 0 0 0 0 0
0 0 0 0 0 0 0 0 0 0 0 0 0 0 0 0 0 0 0 -0 -0 -0 -0 0 -0 0 0 0 0 0 0 0 0 0 0 0 0 0 0 0 0 0 0 0
0 0 0 0 0 0 0 0 0 0 0 0 0 0 0 0 0 0 -0 -0 -0 -0 0 -0 -0 0 0 0 0 0 0 0 0 0 0 0 0 0 0 0 0 0 0 0
0 0 0 0 0 0 0 0 0 0 0 0 0 0 0 0 0 -0 0 -0 -0 -0 0 -0 0 0 0 0 0 0 0 0 0 0 0 0 0 0 0 0 0 0 0 0
0 0 0 0 0 0 0 0 0 0 0 0 0 0 0 0 -0 -0 -0 0 -0 0 -0 -0 0 0 0 0 0 0 0 0 0 0 0 0 0 0 0 0 0 0 0 0
0 0 0 0 0 0 0 0 0 0 0 0 0 0 0 0 0 -0 0 0 -0 0 -0 -0 0 0 0 0 0 0 0 0 0 0 0 0 0 0 0 0 0 0 0 0
0 0 0 0 0 0 0 0 0 0 0 0 0 0 0 0 -0 -0 0 -0 -0 0 -0 -0 0 0 0 0 0 0 0 0 0 0 0 0 0 0 0 0 0 0 0 0
0 0 0 0 0 0 0 0 0 0 0 0 0 0 0 -0 0 0 0 0 0 -0 0 0 0 0 0 0 0 0 0 0 0 0 0 0 0 0 0 0 0 0 0 0
0 0 0 0 0 0 0 0 0 0 0 0 0 0 0 0 0 0 0 -0 0 -0 0 0 0 0 0 0 0 0 0 0 0 0 0 0 0 0 0 0 0 0 0 0
0 0 0 0 0 0 0 0 0 0 0 0 0 0 0 0 0 0 0 0 0 -0 0 0 0 0 0 0 0 0 0 0 0 0 0 0 0 0 0 0 0 0 0 0
0 0 0 0 0 0 0 0 0 0 0 0 0 0 0 0 0 0 0 -0 -0 0 -0 0 0 0 0 0 0 0 0 0 0 0 0 0 0 0 0 0 0 0 0 0
0 0 0 0 0 0 0 0 0 0 0 0 0 0 0 0 0 0 0 -0 -0 -0 -0 0 0 0 0 0 0 0 0 0 0 0 0 0 0 0 0 0 0 0 -0 0
0 0 0 0 0 0 0 0 0 0 0 0 0 0 0 0 0 0 0 -0 -0 -0 0 0 0 0 0 0 0 0 0 0 0 0 0 0 0 0 0 0 0 0 0 0
0 0 0 0 0 0 0 0 0 0 0 0 0 0 0 0 0 0 0 0 0 -0 0 0 0 0 0 0 0 0 0 0 0 0 0 0 0 0 0 0 0 0 0 0
0 0 0 0 0 0 0 0 0 0 0 0 0 0 0 0 0 0 0 0 0 0 0 0 0 0 0 0 0 0 0 0 0 0 0 0 0 0 0 0 0 0 0 0
0 0 0 0 0 0 0 0 0 0 0 0 0 0 0 0 0 0 0 -0 0 0 0 0 0 0 0 0 0 0 0 0 0 0 0 0 0 0 0 0 0 0 0 0
0 0 0 0 0 0 0 0 0 0 0 0 0 0 0 0 0 0 0 0 0 0 0 0 0 0 0 0 0 0 0 0 0 0 0 0 0 0 0 0 0 0 0 0
0 0 0 0 0 0 0 0 0 0 0 0 0 0 0 0 0 0 0 0 0 -0 0 0 0 0 0 0 0 0 0 0 0 0 0 0 0 0 0 0 0 0 0 0
0 0 0 0 0 0 0 0 0 0 0 0 0 0 0 0 0 0 0 0 0 0 0 0 0 0 0 0 0 0 0 0 0 0 0 0 0 0 0 0 0 0 0 0
0 0 0 0 0 0 0 0 0 0 0 0 0 0 0 0 0 0 0 0 0 0 -0 0 0 0 0 0 0 0 0 0 0 0 0 0 0 0 0 0 0 0 0 0
0 0 0 0 0 0 0 0 0 0 0 0 0 0 0 0 0 0 0 0 -0 0 0 0 0 0 0 0 0 0 0 0 0 0 0 0 0 0 0 0 0 0 0 0
0 0 0 0 0 0 0 0 0 0 0 0 0 0 0 0 0 0 0 0 0 0 0 -0 -0 -0 -0 0 0 0 0 0 0 0 0 0 0 0 0 0 0 0 0 0
Wind_Speed_500mb
24 22 12 14 10 9 13 2 4 9 14 11 15 17 11 12 21 39 57 65 61 64 71 77 85 81 90 90 95 72 78 90 80 74 68 77 74 66 78 85 91 79 75 72
14 15 19 7 26 14 9 8 9 14 10 14 16 13 9 4 29 47 60 58 61 71 80 86 86 92 91 96 76 106 73 86 80 72 68 74 80 83 87 89 75 73 79 73
16 10 19 12 14 21 6 9 2 10 8 14 22 5 6 7 40 52 55 57 68 79 81 87 95 94 91 82 105 93 94 90 85 76 76 78 78 79 75 75 77 73 70 66
15 20 13 11 8 14 10 2 20 15 4 5 11 1 6 13 16 35 52 70 73 78 82 89 90 94 97 97 99 95 95 87 86 80 77 75 77 80 76 74 73 70 70 69
4 10 15 11 13 13 17 41 25 7 13 11 6 10 12 14 21 28 51 60 75 79 84 82 96 90 92 105 98 95 89 88 82 77 74 73 74 73 74 73 72 66 62 64
8 13 10 8 22 11 34 15 13 11 8 6 12 9 11 12 16 25 51 69 75 82 88 89 96 92 104 107 98 95 94 90 85 83 80 78 76 75 75 75 75 71 66 57
5 8 4 19 13 17 19 15 10 10 10 5 2 15 2 11 15 23 50 69 77 84 72 91 94 99 105 108 104 94 94 96 92 89 88 86 86 84 81 79 80 80 74 68
10 8 14 24 7 8 10 11 8 6 7 11 14 8 8 5 30 53 59 65 75 78 87 88 91 97 98 100 105 100 103 104 102 99 96 93 91 84 79 73 68 65 72 71
10 5 2 6 9 11 12 10 7 3 6 5 3 10 7 41 38 56 64 73 79 70 89 91 93 96 92 100 101 103 101 103 105 101 95 94 90 82 75 67 61 61 65 69
7 5 3 6 13 22 11 4 10 8 9 10 10 5 9 21 36 47 67 75 83 85 90 92 95 96 95 100 97 101 100 99 102 103 104 100 93 85 74 68 61 58 68 51
6 5 4 9 12 8 12 9 9 5 6 4 8 4 10 13 31 39 65 73 69 85 84 86 90 92 95 98 101 102 99 97 97 104 103 99 94 84 79 71 61 50 53 43
7 5 8 3 1 8 8 6 8 8 12 2 7 10 17 45 51 59 67 76 72 78 81 85 85 91 98 101 99 100 96 91 94 100 99 98 95 92 92 87 70 43 40 34
9 7 5 2 6 4 10 7 6 6 7 6 6 12 37 49 59 64 65 63 79 84 88 91 95 96 97 101 91 95 95 88 94 98 96 100 98 99 97 87 79 66 52 39
4 6 10 10 8 5 1 5 4 8 6 6 11 16 15 34 38 64 70 64 78 78 83 83 96 95 96 98 89 98 91 89 89 100 87 91 96 93 87 82 69 66 61 52
6 5 3 5 9 4 2 3 9 6 10 8 12 16 14 29 44 57 63 73 81 84 85 82 95 99 98 100 96 97 91 90 86 95 83 82 84 90 79 78 77 67 59 55
6 1 4 5 7 7 2 7 8 7 3 7 14 14 30 49 54 65 55 78 78 82 82 87 93 92 96 99 95 93 90 85 85 89 81 74 79 79 83 79 80 78 77 76
5 5 5 3 6 2 6 3 4 2 3 7 6 10 37 41 52 60 60 73 77 82 74 90 93 86 89 93 90 85 81 83 80 85 94 69 71 77 74 78 81 85 85 87
6 5 5 4 4 7 7 4 5 1 6 8 8 18 33 39 54 41 58 71 76 80 74 84 88 81 84 89 84 78 79 78 80 83 90 84 68 68 71 72 79 82 87 93
10 7 4 6 2 2 5 3 1 4 2 11 7 26 34 47 48 36 71 79 77 76 77 78 74 74 78 86 81 79 82 77 83 78 84 93 68 62 65 70 67 72 80 82
7 11 7 6 7 6 5 7 8 10 3 12 16 24 35 46 21 32 81 77 78 71 70 82 71 69 76 84 79 78 79 79 82 71 76 85 67 66 60 63 66 69 70 79
5 6 7 0 2 10 6 12 11 8 8 11 18 23 34 24 33 57 68 73 71 67 73 74 67 68 72 80 76 78 77 78 71 61 64 76 79 70 66 60 64 69 73 74
9 9 5 5 6 7 19 8 9 7 5 8 16 23 33 39 49 58 66 70 69 62 81 62 68 67 68 76 74 76 75 71 65 58 60 66 74 70 73 75 73 73 75 80
2 11 7 12 9 11 20 10 11 5 3 7 15 25 30 38 48 57 63 65 65 58 78 54 65 64 66 74 71 72 71 72 63 56 58 61 65 72 73 76 80 78 78 78
5 9 5 6 7 26 19 13 11 5 3 7 13 20 28 38 45 53 61 64 67 67 78 56 63 65 66 72 71 62 66 73 58 56 56 57 58 61 70 80 74 77 77 72
8 18 10 2 8 21 21 14 16 7 8 4 13 21 30 35 43 50 54 59 60 70 70 54 58 62 61 67 69 60 63 68 59 53 52 53 51 51 52 56 61 72 68 67
22 16 10 9 32 14 27 28 15 13 6 8 15 23 29 34 41 45 49 54 54 67 67 54 51 56 57 62 67 58 59 63 60 52 52 50 50 50 49 49 51 52 57 58
Wind_Direction_500mb
39 58 28 15 40 283 248 192 52 342 170 108 119 125 132 99 43 36 19 4 355 353 349 349 343 344 340 342 336 336 328 329 324 328 324 316 315 302 293 289 295 288 284 282
46 41 325 83 19 349 36 67 1 301 338 99 132 124 140 175 44 33 13 356 357 352 351 347 347 344 345 339 339 334 344 329 331 332 325 316 314 309 304 304 305 285 277 277
89 322 350 49 20 7 322 137 271 243 321 68 116 78 99 341 25 18 6 2 0 353 350 348 344 345 344 344 340 343 339 342 338 337 329 323 318 315 311 310 307 303 292 281
72 5 11 36 46 4 305 194 317 267 167 216 167 62 61 351 10 2 3 2 356 352 349 346 349 346 346 340 349 347 345 341 338 339 335 330 324 318 316 311 310 304 297 288
272 23 7 19 333 322 269 312 294 227 164 95 311 85 298 11 359 1 351 356 355 351 348 349 348 347 344 345 346 347 344 343 349 351 347 340 333 328 326 324 320 314 303 293
101 79 43 313 307 337 324 336 37 44 72 61 329 115 324 7 340 350 353 356 353 350 347 349 351 349 347 352 351 357 353 357 359 358 355 350 344 340 335 332 327 321 314 303
98 17 29 6 1 345 2 28 2 15 9 236 104 61 87 347 351 354 356 351 350 350 353 350 353 349 348 352 358 1 2 2 4 2 359 356 350 345 339 334 328 323 317 311
27 339 14 342 30 276 358 63 93 297 328 288 11 124 143 2 13 5 355 352 350 352 351 354 352 349 348 352 354 2 4 3 4 0 358 357 351 346 339 332 325 323 320 314
28 7 118 42 22 22 336 29 184 115 296 2 244 338 35 354 359 356 354 353 350 353 351 353 350 350 348 355 357 359 359 6 6 359 356 360 353 352 345 342 340 342 339 323
323 11 37 32 23 8 79 315 23 16 23 317 316 68 317 343 351 355 353 348 348 350 352 353 350 349 350 358 1 2 0 6 6 1 359 1 359 357 351 350 345 351 352 335
26 100 30 49 25 350 350 14 20 111 81 177 310 294 357 352 2 351 345 347 349 347 349 350 348 349 357 357 359 0 1 3 4 360 357 0 3 1 4 1 356 359 6 9
358 124 65 112 234 58 62 67 88 107 300 237 162 273 69 22 357 348 345 343 345 348 348 349 350 350 360 358 356 357 1 4 5 359 3 6 8 12 13 12 12 9 17 16
341 13 34 150 341 1 65 59 69 120 83 233 117 263 13 3 349 348 345 346 345 348 350 350 352 353 358 359 352 353 358 5 4 358 7 8 12 14 15 21 34 33 27 26
348 73 136 189 218 181 292 128 112 109 96 257 238 294 341 350 344 342 343 346 346 349 351 351 351 354 0 359 354 357 359 3 1 358 9 9 10 14 21 28 34 41 35 29
84 100 60 148 137 167 229 222 158 150 226 155 287 317 331 344 335 337 341 347 347 349 352 353 351 357 0 358 356 0 6 6 4 360 11 14 12 19 23 32 37 41 43 41
16 191 34 146 184 213 307 278 227 278 23 324 316 307 346 337 341 341 345 346 347 349 350 350 352 1 3 1 357 2 10 9 5 7 13 14 17 22 19 34 40 44 48 49
74 86 63 292 213 52 6 350 104 321 305 260 336 271 339 342 342 336 345 345 345 348 351 351 351 2 4 2 359 6 12 6 10 13 13 16 23 26 26 29 42 48 50 51
107 82 91 213 38 28 223 130 122 266 65 55 353 334 343 337 331 341 350 346 345 347 350 350 351 4 7 3 5 9 12 6 17 16 14 16 25 25 31 34 37 45 48 50
53 110 48 103 154 253 242 230 87 141 132 29 2 340 342 343 342 349 349 349 346 347 349 347 357 6 8 5 6 12 12 11 18 17 21 17 26 30 34 39 35 40 46 46
41 75 111 56 106 207 203 170 150 144 242 5 10 356 351 352 5 329 344 347 351 351 349 348 4 13 11 7 10 15 15 13 19 19 25 23 28 37 40 41 46 51 54 55
21 3 126 86 199 282 178 160 148 62 247 10 4 354 352 348 340 335 344 351 355 351 350 352 12 16 13 9 15 17 21 17 21 23 30 31 31 45 48 51 54 56 56 56
176 139 209 79 54 330 166 145 149 169 100 359 353 354 349 346 348 347 349 353 356 355 352 359 14 19 19 12 18 16 22 23 25 30 34 36 34 42 53 54 56 58 59 57
291 180 184 169 216 141 168 157 148 138 99 6 357 354 349 351 353 347 350 355 358 354 355 6 17 19 21 17 21 20 22 25 28 34 37 40 38 40 47 53 50 51 54 53
234 179 153 67 163 165 171 168 176 162 81 46 352 352 357 355 352 348 354 0 1 353 358 6 16 22 20 20 20 26 25 27 29 38 40 41 41 41 47 49 48 43 44 48
184 153 166 243 137 152 181 193 177 148 104 356 2 13 3 355 354 353 359 2 3 352 360 6 14 20 23 22 18 26 28 28 30 37 41 43 41 41 43 49 48 45 45 45
189 179 166 213 188 163 180 184 175 144 134 22 19 13 2 359 356 357 3 6 357 356 3 8 15 22 25 24 19 25 31 30 29 33 39 41 40 41 44 50 58 66 60 52
Wind_Speed_850mb
24 22 12 14 10 9 13 2 4 9 14 11 15 17 11 12 21 39 57 65 61 64 71 77 85 81 90 90 95 72 78 90 80 74 68 77 74 66 78 85 91 79 75 72
14 15 19 7 26 14 9 8 9 14 10 14 16 13 9 4 29 47 60 58 61 71 80 86 86 92 91 96 76 106 73 86 80 72 68 74 80 83 87 89 75 73 79 73
16 10 19 12 14 21 6 9 2 10 8 14 22 5 6 7 40 52 55 57 68 79 81 87 95 94 91 82 105 93 94 90 85 76 76 78 78 79 75 75 77 73 70 66
15 20 13 11 8 14 10 2 20 15 4 5 11 1 6 13 16 35 52 70 73 78 82 89 90 94 97 97 99 95 95 87 86 80 77 75 77 80 76 74 73 70 70 69
4 10 15 11 13 13 17 41 25 7 13 11 6 10 12 14 21 28 51 60 75 79 84 82 96 90 92 105 98 95 89 88 82 77 74 73 74 73 74 73 72 66 62 64
8 13 10 8 22 11 34 15 13 11 8 6 12 9 11 12 16 25 51 69 75 82 88 89 96 92 104 107 98 95 94 90 85 83 80 78 76 75 75 75 75 71 66 57
5 8 4 19 13 17 19 15 10 10 10 5 2 15 2 11 15 23 50 69 77 84 72 91 94 99 105 108 104 94 94 96 92 89 88 86 86 84 81 79 80 80 74 68
10 8 14 24 7 8 10 11 8 6 7 11 14 8 8 5 30 53 59 65 75 78 87 88 91 97 98 100 105 100 103 104 102 99 96 93 91 84 79 73 68 65 72 71
10 5 2 6 9 11 12 10 7 3 6 5 3 10 7 41 38 56 64 73 79 70 89 91 93 96 92 100 101 103 101 103 105 101 95 94 90 82 75 67 61 61 65 69
7 5 3 6 13 22 11 4 10 8 9 10 10 5 9 21 36 47 67 75 83 85 90 92 95 96 95 100 97 101 100 99 102 103 104 100 93 85 74 68 61 58 68 51
6 5 4 9 12 8 12 9 9 5 6 4 8 4 10 13 31 39 65 73 69 85 84 86 90 92 95 98 101 102 99 97 97 104 103 99 94 84 79 71 61 50 53 43
7 5 8 3 1 8 8 6 8 8 12 2 7 10 17 45 51 59 67 76 72 78 81 85 85 91 98 101 99 100 96 91 94 100 99 98 95 92 92 87 70 43 40 34
9 7 5 2 6 4 10 7 6 6 7 6 6 12 37 49 59 64 65 63 79 84 88 91 95 96 97 101 91 95 95 88 94 98 96 100 98 99 97 87 79 66 52 39
4 6 10 10 8 5 1 5 4 8 6 6 11 16 15 34 38 64 70 64 78 78 83 83 96 95 96 98 89 98 91 89 89 100 87 91 96 93 87 82 69 66 61 52
6 5 3 5 9 4 2 3 9 6 10 8 12 16 14 29 44 57 63 73 81 84 85 82 95 99 98 100 96 97 91 90 86 95 83 82 84 90 79 78 77 67 59 55
6 1 4 5 7 7 2 7 8 7 3 7 14 14 30 49 54 65 55 78 78 82 82 87 93 92 96 99 95 93 90 85 85 89 81 74 79 79 83 79 80 78 77 76
5 5 5 3 6 2 6 3 4 2 3 7 6 10 37 41 52 60 60 73 77 82 74 90 93 86 89 93 90 85 81 83 80 85 94 69 71 77 74 78 81 85 85 87
6 5 5 4 4 7 7 4 5 1 6 8 8 18 33 39 54 41 58 71 76 80 74 84 88 81 84 89 84 78 79 78 80 83 90 84 68 68 71 72 79 82 87 93
10 7 4 6 2 2 5 3 1 4 2 11 7 26 34 47 48 36 71 79 77 76 77 78 74 74 78 86 81 79 82 77 83 78 84 93 68 62 65 70 67 72 80 82
7 11 7 6 7 6 5 7 8 10 3 12 16 24 35 46 21 32 81 77 78 71 70 82 71 69 76 84 79 78 79 79 82 71 76 85 67 66 60 63 66 69 70 79
5 6 7 0 2 10 6 12 11 8 8 11 18 23 34 24 33 57 68 73 71 67 73 74 67 68 72 80 76 78 77 78 71 61 64 76 79 70 66 60 64 69 73 74
9 9 5 5 6 7 19 8 9 7 5 8 16 23 33 39 49 58 66 70 69 62 81 62 68 67 68 76 74 76 75 71 65 58 60 66 74 70 73 75 73 73 75 80
2 11 7 12 9 11 20 10 11 5 3 7 15 25 30 38 48 57 63 65 65 58 78 54 65 64 66 74 71 72 71 72 63 56 58 61 65 72 73 76 80 78 78 78
5 9 5 6 7 26 19 13 11 5 3 7 13 20 28 38 45 53 61 64 67 67 78 56 63 65 66 72 71 62 66 73 58 56 56 57 58 61 70 80 74 77 77 72
8 18 10 2 8 21 21 14 16 7 8 4 13 21 30 35 43 50 54 59 60 70 70 54 58 62 61 67 69 60 63 68 59 53 52 53 51 51 52 56 61 72 68 67
22 16 10 9 32 14 27 28 15 13 6 8 15 23 29 34 41 45 49 54 54 67 67 54 51 56 57 62 67 58 59 63 60 52 52 50 50 50 49 49 51 52 57 58
Wind_Direction_850mb
39 58 28 15 40 283 248 192 52 342 170 108 119 125 132 99 43 36 19 4 355 353 349 349 343 344 340 342 336 336 328 329 324 328 324 316 315 302 293 289 295 288 284 282
46 41 325 83 19 349 36 67 1 301 338 99 132 124 140 175 44 33 13 356 357 352 351 347 347 344 345 339 339 334 344 329 331 332 325 316 314 309 304 304 305 285 277 277
89 322 350 49 20 7 322 137 271 243 321 68 116 78 99 341 25 18 6 2 0 353 350 348 344 345 344 344 340 343 339 342 338 337 329 323 318 315 311 310 307 303 292 281
72 5 11 36 46 4 305 194 317 267 167 216 167 62 61 351 10 2 3 2 356 352 349 346 349 346 346 340 349 347 345 341 338 339 335 330 324 318 316 311 310 304 297 288
272 23 7 19 333 322 269 312 294 227 164 95 311 85 298 11 359 1 351 356 355 351 348 349 348 347 344 345 346 347 344 343 349 351 347 340 333 328 326 324 320 314 303 293
101 79 43 313 307 337 324 336 37 44 72 61 329 115 324 7 340 350 353 356 353 350 347 349 351 349 347 352 351 357 353 357 359 358 355 350 344 340 335 332 327 321 314 303
98 17 29 6 1 345 2 28 2 15 9 236 104 61 87 347 351 354 356 351 350 350 353 350 353 349 348 352 358 1 2 2 4 2 359 356 350 345 339 334 328 323 317 311
27 339 14 342 30 276 358 63 93 297 328 288 11 124 143 2 13 5 355 352 350 352 351 354 352 349 348 352 354 2 4 3 4 0 358 357 351 346 339 332 325 323 320 314
28 7 118 42 22 22 336 29 184 115 296 2 244 338 35 354 359 356 354 353 350 353 351 353 350 350 348 355 357 359 359 6 6 359 356 360 353 352 345 342 340 342 339 323
323 11 37 32 23 8 79 315 23 16 23 317 316 68 317 343 351 355 353 348 348 350 352 353 350 349 350 358 1 2 0 6 6 1 359 1 359 357 351 350 345 351 352 335
26 100 30 49 25 350 350 14 20 111 81 177 310 294 357 352 2 351 345 347 349 347 349 350 348 349 357 357 359 0 1 3 4 360 357 0 3 1 4 1 356 359 6 9
358 124 65 112 234 58 62 67 88 107 300 237 162 273 69 22 357 348 345 343 345 348 348 349 350 350 360 358 356 357 1 4 5 359 3 6 8 12 13 12 12 9 17 16
341 13 34 150 341 1 65 59 69 120 83 233 117 263 13 3 349 348 345 346 345 348 350 350 352 353 358 359 352 353 358 5 4 358 7 8 12 14 15 21 34 33 27 26
348 73 136 189 218 181 292 128 112 109 96 257 238 294 341 350 344 342 343 346 346 349 351 351 351 354 0 359 354 357 359 3 1 358 9 9 10 14 21 28 34 41 35 29
84 100 60 148 137 167 229 222 158 150 226 155 287 317 331 344 335 337 341 347 347 349 352 353 351 357 0 358 356 0 6 6 4 360 11 14 12 19 23 32 37 41 43 41
16 191 34 146 184 213 307 278 227 278 23 324 316 307 346 337 341 341 345 346 347 349 350 350 352 1 3 1 357 2 10 9 5 7 13 14 17 22 19 34 40 44 48 49
74 86 63 292 213 52 6 350 104 321 305 260 336 271 339 342 342 336 345 345 345 348 351 351 351 2 4 2 359 6 12 6 10 13 13 16 23 26 26 29 42 48 50 51
107 82 91 213 38 28 223 130 122 266 65 55 353 334 343 337 331 341 350 346 345 347 350 350 351 4 7 3 5 9 12 6 17 16 14 16 25 25 31 34 37 45 48 50
53 110 48 103 154 253 242 230 87 141 132 29 2 340 342 343 342 349 349 349 346 347 349 347 357 6 8 5 6 12 12 11 18 17 21 17 26 30 34 39 35 40 46 46
41 75 111 56 106 207 203 170 150 144 242 5 10 356 351 352 5 329 344 347 351 351 349 348 4 13 11 7 10 15 15 13 19 19 25 23 28 37 40 41 46 51 54 55
21 3 126 86 199 282 178 160 148 62 247 10 4 354 352 348 340 335 344 351 355 351 350 352 12 16 13 9 15 17 21 17 21 23 30 31 31 45 48 51 54 56 56 56
176 139 209 79 54 330 166 145 149 169 100 359 353 354 349 346 348 347 349 353 356 355 352 359 14 19 19 12 18 16 22 23 25 30 34 36 34 42 53 54 56 58 59 57
291 180 184 169 216 141 168 157 148 138 99 6 357 354 349 351 353 347 350 355 358 354 355 6 17 19 21 17 21 20 22 25 28 34 37 40 38 40 47 53 50 51 54 53
234 179 153 67 163 165 171 168 176 162 81 46 352 352 357 355 352 348 354 0 1 353 358 6 16 22 20 20 20 26 25 27 29 38 40 41 41 41 47 49 48 43 44 48
184 153 166 243 137 152 181 193 177 148 104 356 2 13 3 355 354 353 359 2 3 352 360 6 14 20 23 22 18 26 28 28 30 37 41 43 41 41 43 49 48 45 45 45
189 179 166 213 188 163 180 184 175 144 134 22 19 13 2 359 356 357 3 6 357 356 3 8 15 22 25 24 19 25 31 30 29 33 39 41 40 41 44 50 58 66 60 52